contact:dominique.lefevre@mio.osupytheas.fr, maurice.libes@osupytheas.fr, didier.mallarino@osupytheas.fr
Project:EMSO http://www.emso-fr.org/EMSO-France
Depth: 2436.0 m
Title:EMSO Ligure Ouest : Data MII capteur MICROCAT
DateTime_Computer,Latitude,Longitude,Temperature,Conductivity,Pressure,DateTime_Instrument
DateTime_Computer,Latitude,Longitude,degC,S m-1,dbar,DateTime_Instrument
2023-12-02T00:02:27Z,42.805,6.029,13.3042,4.60114,2470.824,2023-12-02T02:04:55Z
2023-12-02T00:05:30Z,42.805,6.029,13.3040,4.60113,2470.8,2023-12-02T02:07:58Z
2023-12-02T00:08:33Z,42.805,6.029,13.3039,4.60112,2470.787,2023-12-02T02:11:01Z
2023-12-02T00:11:36Z,42.805,6.029,13.3041,4.60112,2470.81,2023-12-02T02:14:04Z
2023-12-02T00:14:39Z,42.805,6.029,13.3041,4.60114,2470.81,2023-12-02T02:17:07Z
2023-12-02T00:17:42Z,42.805,6.029,13.3039,4.60112,2470.787,2023-12-02T02:20:11Z
2023-12-02T00:20:45Z,42.805,6.029,13.3038,4.60113,2470.824,2023-12-02T02:23:14Z
2023-12-02T00:23:48Z,42.805,6.029,13.3043,4.60114,2470.81,2023-12-02T02:26:17Z
2023-12-02T00:26:51Z,42.805,6.029,13.3039,4.60118,2470.81,2023-12-02T02:29:20Z
2023-12-02T00:29:54Z,42.805,6.029,13.3040,4.60113,2470.787,2023-12-02T02:32:23Z
2023-12-02T00:32:57Z,42.805,6.029,13.3038,4.60112,2470.81,2023-12-02T02:35:26Z
2023-12-02T00:36:00Z,42.805,6.029,13.3041,4.60112,2470.787,2023-12-02T02:38:29Z
2023-12-02T00:39:04Z,42.805,6.029,13.3039,4.60113,2470.787,2023-12-02T02:41:32Z
2023-12-02T00:42:07Z,42.805,6.029,13.3041,4.60119,2470.754,2023-12-02T02:44:35Z
2023-12-02T00:45:10Z,42.805,6.029,13.3042,4.60117,2470.8,2023-12-02T02:47:38Z
2023-12-02T00:48:13Z,42.805,6.029,13.3040,4.60114,2470.763,2023-12-02T02:50:41Z
2023-12-02T00:51:16Z,42.805,6.029,13.3041,4.60113,2470.8,2023-12-02T02:53:44Z
2023-12-02T00:54:19Z,42.805,6.029,13.3041,4.60114,2470.81,2023-12-02T02:56:48Z
2023-12-02T00:57:22Z,42.805,6.029,13.3042,4.60112,2470.787,2023-12-02T02:59:51Z
2023-12-02T01:00:25Z,42.805,6.029,13.3041,4.60115,2470.8,2023-12-02T03:02:54Z
2023-12-02T01:03:28Z,42.805,6.029,13.3038,4.60114,2470.81,2023-12-02T03:05:57Z
2023-12-02T01:06:31Z,42.805,6.029,13.3038,4.60113,2470.777,2023-12-02T03:09:00Z
2023-12-02T01:09:34Z,42.805,6.029,13.3038,4.60114,2470.824,2023-12-02T03:12:03Z
2023-12-02T01:12:37Z,42.805,6.029,13.3042,4.60115,2470.777,2023-12-02T03:15:06Z
2023-12-02T01:15:40Z,42.805,6.029,13.3043,4.60113,2470.763,2023-12-02T03:18:09Z
2023-12-02T01:18:43Z,42.805,6.029,13.3039,4.60113,2470.787,2023-12-02T03:21:12Z
2023-12-02T01:21:47Z,42.805,6.029,13.3036,4.60113,2470.824,2023-12-02T03:24:15Z
2023-12-02T01:24:50Z,42.805,6.029,13.3041,4.60114,2470.8,2023-12-02T03:27:18Z
2023-12-02T01:27:53Z,42.805,6.029,13.3043,4.60114,2470.787,2023-12-02T03:30:21Z
2023-12-02T01:30:56Z,42.805,6.029,13.3043,4.60113,2470.787,2023-12-02T03:33:24Z
2023-12-02T01:33:59Z,42.805,6.029,13.3043,4.60114,2470.777,2023-12-02T03:36:27Z
2023-12-02T01:37:02Z,42.805,6.029,13.3043,4.60113,2470.777,2023-12-02T03:39:31Z
2023-12-02T01:40:05Z,42.805,6.029,13.3041,4.60114,2470.763,2023-12-02T03:42:34Z
2023-12-02T01:43:08Z,42.805,6.029,13.3039,4.60113,2470.763,2023-12-02T03:45:37Z
2023-12-02T01:46:11Z,42.805,6.029,13.3044,4.60119,2470.777,2023-12-02T03:48:40Z
2023-12-02T01:49:14Z,42.805,6.029,13.3037,4.60117,2470.787,2023-12-02T03:51:43Z
2023-12-02T01:52:17Z,42.805,6.029,13.3043,4.60119,2470.777,2023-12-02T03:54:46Z
2023-12-02T01:55:20Z,42.805,6.029,13.3041,4.60114,2470.777,2023-12-02T03:57:49Z
2023-12-02T01:58:23Z,42.805,6.029,13.3039,4.60114,2470.777,2023-12-02T04:00:52Z
2023-12-02T02:01:27Z,42.805,6.029,13.3038,4.60112,2470.787,2023-12-02T04:03:55Z
2023-12-02T02:04:30Z,42.805,6.029,13.3041,4.60114,2470.763,2023-12-02T04:06:58Z
2023-12-02T02:07:33Z,42.805,6.029,13.3039,4.60115,2470.763,2023-12-02T04:10:01Z
2023-12-02T02:10:36Z,42.805,6.029,13.3039,4.60113,2470.777,2023-12-02T04:13:04Z
2023-12-02T02:13:39Z,42.805,6.029,13.3037,4.60114,2470.763,2023-12-02T04:16:07Z
2023-12-02T02:16:42Z,42.805,6.029,13.3041,4.60114,2470.74,2023-12-02T04:19:11Z
2023-12-02T02:19:45Z,42.805,6.029,13.3040,4.60114,2470.74,2023-12-02T04:22:14Z
2023-12-02T02:22:48Z,42.805,6.029,13.3040,4.60113,2470.763,2023-12-02T04:25:17Z
2023-12-02T02:25:51Z,42.805,6.029,13.3043,4.60114,2470.763,2023-12-02T04:28:20Z
2023-12-02T02:28:54Z,42.805,6.029,13.3038,4.60119,2470.763,2023-12-02T04:31:23Z
2023-12-02T02:31:57Z,42.805,6.029,13.3041,4.60117,2470.717,2023-12-02T04:34:26Z
2023-12-02T02:35:00Z,42.805,6.029,13.3039,4.60114,2470.754,2023-12-02T04:37:29Z
2023-12-02T02:38:03Z,42.805,6.029,13.3041,4.60118,2470.777,2023-12-02T04:40:32Z
2023-12-02T02:41:07Z,42.805,6.029,13.3040,4.60114,2470.754,2023-12-02T04:43:35Z
2023-12-02T02:44:10Z,42.805,6.029,13.3039,4.60115,2470.74,2023-12-02T04:46:38Z
2023-12-02T02:47:13Z,42.805,6.029,13.3041,4.60114,2470.74,2023-12-02T04:49:41Z
2023-12-02T02:50:16Z,42.805,6.029,13.3041,4.60114,2470.74,2023-12-02T04:52:44Z
2023-12-02T02:53:19Z,42.805,6.029,13.3034,4.60113,2470.74,2023-12-02T04:55:47Z
2023-12-02T02:56:22Z,42.805,6.029,13.3037,4.60114,2470.74,2023-12-02T04:58:51Z
2023-12-02T02:59:25Z,42.805,6.029,13.3039,4.60117,2470.754,2023-12-02T05:01:54Z
2023-12-02T03:02:28Z,42.805,6.029,13.3039,4.60113,2470.763,2023-12-02T05:04:57Z
2023-12-02T03:05:31Z,42.805,6.029,13.3043,4.60115,2470.763,2023-12-02T05:08:00Z
2023-12-02T03:08:34Z,42.805,6.029,13.3041,4.60119,2470.777,2023-12-02T05:11:03Z
2023-12-02T03:11:37Z,42.805,6.029,13.3039,4.60120,2470.717,2023-12-02T05:14:06Z
2023-12-02T03:14:40Z,42.805,6.029,13.3045,4.60116,2470.777,2023-12-02T05:17:09Z
2023-12-02T03:17:43Z,42.805,6.029,13.3042,4.60115,2470.777,2023-12-02T05:20:12Z
2023-12-02T03:20:47Z,42.805,6.029,13.3043,4.60114,2470.717,2023-12-02T05:23:15Z
2023-12-02T03:23:50Z,42.805,6.029,13.3042,4.60115,2470.763,2023-12-02T05:26:18Z
2023-12-02T03:26:53Z,42.805,6.029,13.3039,4.60114,2470.74,2023-12-02T05:29:21Z
2023-12-02T03:29:56Z,42.805,6.029,13.3042,4.60117,2470.777,2023-12-02T05:32:24Z
2023-12-02T03:32:59Z,42.805,6.029,13.3042,4.60117,2470.754,2023-12-02T05:35:27Z
2023-12-02T03:36:02Z,42.805,6.029,13.3037,4.60113,2470.763,2023-12-02T05:38:31Z
2023-12-02T03:39:05Z,42.805,6.029,13.3037,4.60113,2470.763,2023-12-02T05:41:34Z
2023-12-02T03:42:08Z,42.805,6.029,13.3040,4.60115,2470.717,2023-12-02T05:44:37Z
2023-12-02T03:45:11Z,42.805,6.029,13.3043,4.60115,2470.74,2023-12-02T05:47:40Z
2023-12-02T03:48:14Z,42.805,6.029,13.3043,4.60114,2470.74,2023-12-02T05:50:43Z
2023-12-02T03:51:17Z,42.805,6.029,13.3039,4.60113,2470.74,2023-12-02T05:53:46Z
2023-12-02T03:54:20Z,42.805,6.029,13.3043,4.60116,2470.754,2023-12-02T05:56:49Z
2023-12-02T03:57:23Z,42.805,6.029,13.3042,4.60116,2470.74,2023-12-02T05:59:52Z
2023-12-02T04:00:27Z,42.805,6.029,13.3044,4.60114,2470.763,2023-12-02T06:02:55Z
2023-12-02T04:03:30Z,42.805,6.029,13.3038,4.60119,2470.726,2023-12-02T06:05:58Z
2023-12-02T04:06:33Z,42.805,6.029,13.3037,4.60114,2470.763,2023-12-02T06:09:01Z
2023-12-02T04:09:36Z,42.805,6.029,13.3038,4.60114,2470.74,2023-12-02T06:12:04Z
2023-12-02T04:12:39Z,42.805,6.029,13.3039,4.60114,2470.763,2023-12-02T06:15:07Z
2023-12-02T04:15:42Z,42.805,6.029,13.3039,4.60115,2470.74,2023-12-02T06:18:10Z
2023-12-02T04:18:45Z,42.805,6.029,13.3039,4.60114,2470.74,2023-12-02T06:21:14Z
2023-12-02T04:21:48Z,42.805,6.029,13.3039,4.60117,2470.74,2023-12-02T06:24:17Z
2023-12-02T04:24:51Z,42.805,6.029,13.3041,4.60114,2470.717,2023-12-02T06:27:20Z
2023-12-02T04:27:54Z,42.805,6.029,13.3041,4.60114,2470.754,2023-12-02T06:30:23Z
2023-12-02T04:30:57Z,42.805,6.029,13.3043,4.60114,2470.717,2023-12-02T06:33:26Z
2023-12-02T04:34:00Z,42.805,6.029,13.3040,4.60114,2470.74,2023-12-02T06:36:29Z
2023-12-02T04:37:03Z,42.805,6.029,13.3041,4.60114,2470.763,2023-12-02T06:39:32Z
2023-12-02T04:40:06Z,42.805,6.029,13.3038,4.60114,2470.763,2023-12-02T06:42:35Z
2023-12-02T04:43:10Z,42.805,6.029,13.3041,4.60113,2470.75,2023-12-02T06:45:38Z
2023-12-02T04:46:13Z,42.805,6.029,13.3040,4.60118,2470.777,2023-12-02T06:48:41Z
2023-12-02T04:49:16Z,42.805,6.029,13.3041,4.60114,2470.763,2023-12-02T06:51:44Z
2023-12-02T04:52:19Z,42.805,6.029,13.3041,4.60117,2470.754,2023-12-02T06:54:47Z
2023-12-02T04:55:22Z,42.805,6.029,13.3041,4.60116,2470.754,2023-12-02T06:57:50Z
2023-12-02T04:58:25Z,42.805,6.029,13.3045,4.60115,2470.74,2023-12-02T07:00:54Z
2023-12-02T05:01:28Z,42.805,6.029,13.3041,4.60115,2470.763,2023-12-02T07:03:57Z
2023-12-02T05:04:31Z,42.805,6.029,13.3041,4.60116,2470.763,2023-12-02T07:07:00Z
2023-12-02T05:07:34Z,42.805,6.029,13.3043,4.60116,2470.74,2023-12-02T07:10:03Z
2023-12-02T05:10:37Z,42.805,6.029,13.3039,4.60117,2470.74,2023-12-02T07:13:06Z
2023-12-02T05:13:40Z,42.805,6.029,13.3042,4.60117,2470.777,2023-12-02T07:16:09Z
2023-12-02T05:16:43Z,42.805,6.029,13.3043,4.60116,2470.763,2023-12-02T07:19:12Z
2023-12-02T05:19:46Z,42.805,6.029,13.3041,4.60114,2470.763,2023-12-02T07:22:15Z
2023-12-02T05:22:50Z,42.805,6.029,13.3040,4.60115,2470.763,2023-12-02T07:25:18Z
2023-12-02T05:25:53Z,42.805,6.029,13.3039,4.60114,2470.763,2023-12-02T07:28:21Z
2023-12-02T05:28:56Z,42.805,6.029,13.3041,4.60116,2470.777,2023-12-02T07:31:24Z
2023-12-02T05:31:58Z,42.805,6.029,13.3041,4.60114,2470.777,2023-12-02T07:34:27Z
2023-12-02T05:35:02Z,42.805,6.029,13.3045,4.60117,2470.763,2023-12-02T07:37:30Z
2023-12-02T05:38:05Z,42.805,6.029,13.3041,4.60114,2470.763,2023-12-02T07:40:33Z
2023-12-02T05:41:08Z,42.805,6.029,13.3041,4.60114,2470.81,2023-12-02T07:43:36Z
2023-12-02T05:44:11Z,42.805,6.029,13.3039,4.60119,2470.754,2023-12-02T07:46:39Z
2023-12-02T05:47:14Z,42.805,6.029,13.3040,4.60115,2470.763,2023-12-02T07:49:43Z
2023-12-02T05:50:17Z,42.805,6.029,13.3043,4.60115,2470.75,2023-12-02T07:52:46Z
2023-12-02T05:53:20Z,42.805,6.029,13.3037,4.60114,2470.787,2023-12-02T07:55:49Z
2023-12-02T05:56:23Z,42.805,6.029,13.3041,4.60114,2470.777,2023-12-02T07:58:52Z
2023-12-02T05:59:26Z,42.805,6.029,13.3041,4.60114,2470.787,2023-12-02T08:01:55Z
2023-12-02T06:02:29Z,42.805,6.029,13.3041,4.60116,2470.787,2023-12-02T08:04:58Z
2023-12-02T06:05:32Z,42.805,6.029,13.3041,4.60115,2470.773,2023-12-02T08:08:01Z
2023-12-02T06:08:35Z,42.805,6.029,13.3039,4.60115,2470.787,2023-12-02T08:11:04Z
2023-12-02T06:11:39Z,42.805,6.029,13.3043,4.60114,2470.824,2023-12-02T08:14:07Z
2023-12-02T06:14:42Z,42.805,6.029,13.3040,4.60114,2470.8,2023-12-02T08:17:10Z
2023-12-02T06:17:45Z,42.805,6.029,13.3044,4.60116,2470.787,2023-12-02T08:20:13Z
2023-12-02T06:20:48Z,42.805,6.029,13.3043,4.60114,2470.787,2023-12-02T08:23:16Z
2023-12-02T06:23:51Z,42.805,6.029,13.3041,4.60113,2470.787,2023-12-02T08:26:19Z
2023-12-02T06:26:54Z,42.805,6.029,13.3039,4.60112,2470.773,2023-12-02T08:29:23Z
2023-12-02T06:29:57Z,42.805,6.029,13.3039,4.60114,2470.787,2023-12-02T08:32:26Z
2023-12-02T06:33:00Z,42.805,6.029,13.3041,4.60114,2470.81,2023-12-02T08:35:29Z
2023-12-02T06:36:03Z,42.805,6.029,13.3041,4.60113,2470.81,2023-12-02T08:38:32Z
2023-12-02T06:39:06Z,42.805,6.029,13.3039,4.60114,2470.81,2023-12-02T08:41:35Z
2023-12-02T06:42:09Z,42.805,6.029,13.3041,4.60113,2470.824,2023-12-02T08:44:38Z
2023-12-02T06:45:12Z,42.805,6.029,13.3039,4.60114,2470.81,2023-12-02T08:47:41Z
2023-12-02T06:48:15Z,42.805,6.029,13.3039,4.60114,2470.81,2023-12-02T08:50:44Z
2023-12-02T06:51:19Z,42.805,6.029,13.3039,4.60114,2470.824,2023-12-02T08:53:47Z
2023-12-02T06:54:22Z,42.805,6.029,13.3039,4.60114,2470.833,2023-12-02T08:56:50Z
2023-12-02T06:57:25Z,42.805,6.029,13.3039,4.60112,2470.81,2023-12-02T08:59:53Z
2023-12-02T07:00:28Z,42.805,6.029,13.3042,4.60113,2470.833,2023-12-02T09:02:56Z
2023-12-02T07:03:31Z,42.805,6.029,13.3041,4.60114,2470.833,2023-12-02T09:06:00Z
2023-12-02T07:06:34Z,42.805,6.029,13.3041,4.60113,2470.833,2023-12-02T09:09:03Z
2023-12-02T07:09:37Z,42.805,6.029,13.3043,4.60114,2470.833,2023-12-02T09:12:06Z
2023-12-02T07:12:40Z,42.805,6.029,13.3039,4.60114,2470.833,2023-12-02T09:15:09Z
2023-12-02T07:15:43Z,42.805,6.029,13.3040,4.60113,2470.847,2023-12-02T09:18:12Z
2023-12-02T07:18:46Z,42.805,6.029,13.3041,4.60112,2470.857,2023-12-02T09:21:15Z
2023-12-02T07:21:49Z,42.805,6.029,13.3039,4.60114,2470.857,2023-12-02T09:24:18Z
2023-12-02T07:24:52Z,42.805,6.029,13.3037,4.60112,2470.833,2023-12-02T09:27:21Z
2023-12-02T07:27:55Z,42.805,6.029,13.3039,4.60114,2470.857,2023-12-02T09:30:24Z
2023-12-02T07:30:59Z,42.805,6.029,13.3041,4.60112,2470.857,2023-12-02T09:33:27Z
2023-12-02T07:34:02Z,42.805,6.029,13.3040,4.60111,2470.857,2023-12-02T09:36:30Z
2023-12-02T07:37:05Z,42.805,6.029,13.3040,4.60110,2470.857,2023-12-02T09:39:33Z
2023-12-02T07:40:08Z,42.805,6.029,13.3036,4.60111,2470.857,2023-12-02T09:42:36Z
2023-12-02T07:43:11Z,42.805,6.029,13.3037,4.60110,2470.857,2023-12-02T09:45:40Z
2023-12-02T07:46:14Z,42.805,6.029,13.3039,4.60112,2470.871,2023-12-02T09:48:43Z
2023-12-02T07:49:17Z,42.805,6.029,13.3037,4.60110,2470.88,2023-12-02T09:51:46Z
2023-12-02T07:52:20Z,42.805,6.029,13.3039,4.60110,2470.857,2023-12-02T09:54:49Z
2023-12-02T07:55:23Z,42.805,6.029,13.3037,4.60110,2470.88,2023-12-02T09:57:52Z
2023-12-02T07:58:26Z,42.805,6.029,13.3036,4.60111,2470.88,2023-12-02T10:00:55Z
2023-12-02T08:01:29Z,42.805,6.029,13.3034,4.60111,2470.88,2023-12-02T10:03:58Z
2023-12-02T08:04:32Z,42.805,6.029,13.3038,4.60111,2470.88,2023-12-02T10:07:01Z
2023-12-02T08:07:36Z,42.805,6.029,13.3038,4.60110,2470.894,2023-12-02T10:10:04Z
2023-12-02T08:10:39Z,42.805,6.029,13.3037,4.60110,2470.88,2023-12-02T10:13:07Z
2023-12-02T08:13:42Z,42.805,6.029,13.3037,4.60111,2470.88,2023-12-02T10:16:10Z
2023-12-02T08:16:45Z,42.805,6.029,13.3036,4.60111,2470.894,2023-12-02T10:19:13Z
2023-12-02T08:19:48Z,42.805,6.029,13.3039,4.60111,2470.904,2023-12-02T10:22:17Z
2023-12-02T08:22:51Z,42.805,6.029,13.3035,4.60110,2470.904,2023-12-02T10:25:20Z
2023-12-02T08:25:54Z,42.805,6.029,13.3037,4.60112,2470.917,2023-12-02T10:28:23Z
2023-12-02T08:28:57Z,42.805,6.029,13.3039,4.60111,2470.88,2023-12-02T10:31:26Z
2023-12-02T08:32:00Z,42.805,6.029,13.3039,4.60112,2470.904,2023-12-02T10:34:29Z
2023-12-02T08:35:03Z,42.805,6.029,13.3039,4.60111,2470.904,2023-12-02T10:37:32Z
2023-12-02T08:38:06Z,42.805,6.029,13.3039,4.60112,2470.917,2023-12-02T10:40:35Z
2023-12-02T08:41:09Z,42.805,6.029,13.3034,4.60112,2470.927,2023-12-02T10:43:38Z
2023-12-02T08:44:13Z,42.805,6.029,13.3035,4.60112,2470.94,2023-12-02T10:46:41Z
2023-12-02T08:47:16Z,42.805,6.029,13.3034,4.60112,2470.95,2023-12-02T10:49:44Z
2023-12-02T08:50:19Z,42.805,6.029,13.3036,4.60112,2470.927,2023-12-02T10:52:47Z
2023-12-02T08:53:22Z,42.805,6.029,13.3033,4.60112,2470.904,2023-12-02T10:55:50Z
2023-12-02T08:56:25Z,42.805,6.029,13.3039,4.60112,2470.973,2023-12-02T10:58:54Z
2023-12-02T08:59:28Z,42.805,6.029,13.3037,4.60113,2470.94,2023-12-02T11:01:57Z
2023-12-02T09:02:31Z,42.805,6.029,13.3039,4.60114,2470.94,2023-12-02T11:05:00Z
2023-12-02T09:05:34Z,42.805,6.029,13.3036,4.60114,2470.95,2023-12-02T11:08:03Z
2023-12-02T09:08:37Z,42.805,6.029,13.3035,4.60113,2470.927,2023-12-02T11:11:06Z
2023-12-02T09:11:40Z,42.805,6.029,13.3036,4.60112,2470.927,2023-12-02T11:14:09Z
2023-12-02T09:14:43Z,42.805,6.029,13.3038,4.60112,2470.904,2023-12-02T11:17:12Z
2023-12-02T09:17:46Z,42.805,6.029,13.3040,4.60112,2470.964,2023-12-02T11:20:15Z
2023-12-02T09:20:50Z,42.805,6.029,13.3039,4.60112,2470.959,2023-12-02T11:23:18Z
2023-12-02T09:23:53Z,42.805,6.029,13.3037,4.60113,2470.927,2023-12-02T11:26:21Z
2023-12-02T09:26:56Z,42.805,6.029,13.3037,4.60113,2470.95,2023-12-02T11:29:24Z
2023-12-02T09:29:59Z,42.805,6.029,13.3037,4.60112,2470.973,2023-12-02T11:32:27Z
2023-12-02T09:33:02Z,42.805,6.029,13.3037,4.60112,2470.95,2023-12-02T11:35:31Z
2023-12-02T09:36:05Z,42.805,6.029,13.3037,4.60112,2470.927,2023-12-02T11:38:34Z
2023-12-02T09:39:08Z,42.805,6.029,13.3041,4.60112,2470.94,2023-12-02T11:41:37Z
2023-12-02T09:42:11Z,42.805,6.029,13.3037,4.60115,2470.95,2023-12-02T11:44:40Z
2023-12-02T09:45:14Z,42.805,6.029,13.3038,4.60112,2470.964,2023-12-02T11:47:43Z
2023-12-02T09:48:17Z,42.805,6.029,13.3037,4.60113,2470.927,2023-12-02T11:50:46Z
2023-12-02T09:51:20Z,42.805,6.029,13.3036,4.60112,2470.927,2023-12-02T11:53:49Z
2023-12-02T09:54:23Z,42.805,6.029,13.3041,4.60113,2470.927,2023-12-02T11:56:52Z
2023-12-02T09:57:27Z,42.805,6.029,13.3041,4.60113,2470.927,2023-12-02T11:59:55Z
2023-12-02T10:00:30Z,42.805,6.029,13.3039,4.60112,2470.95,2023-12-02T12:02:58Z
2023-12-02T10:03:33Z,42.805,6.029,13.3037,4.60113,2470.94,2023-12-02T12:06:01Z
2023-12-02T10:06:36Z,42.805,6.029,13.3039,4.60113,2470.95,2023-12-02T12:09:04Z
2023-12-02T10:09:39Z,42.805,6.029,13.3035,4.60114,2470.973,2023-12-02T12:12:08Z
2023-12-02T10:12:42Z,42.805,6.029,13.3038,4.60112,2470.927,2023-12-02T12:15:11Z
2023-12-02T10:15:45Z,42.805,6.029,13.3039,4.60114,2470.973,2023-12-02T12:18:14Z
2023-12-02T10:18:48Z,42.805,6.029,13.3039,4.60112,2470.95,2023-12-02T12:21:17Z
2023-12-02T10:21:51Z,42.805,6.029,13.3039,4.60112,2470.973,2023-12-02T12:24:20Z
2023-12-02T10:24:54Z,42.805,6.029,13.3038,4.60113,2470.95,2023-12-02T12:27:23Z
2023-12-02T10:27:57Z,42.805,6.029,13.3039,4.60112,2470.95,2023-12-02T12:30:26Z
2023-12-02T10:31:00Z,42.805,6.029,13.3041,4.60113,2470.95,2023-12-02T12:33:29Z
2023-12-02T10:34:04Z,42.805,6.029,13.3039,4.60113,2470.927,2023-12-02T12:36:32Z
2023-12-02T10:37:07Z,42.805,6.029,13.3039,4.60114,2470.94,2023-12-02T12:39:35Z
2023-12-02T10:40:10Z,42.805,6.029,13.3039,4.60115,2470.95,2023-12-02T12:42:38Z
2023-12-02T10:43:13Z,42.805,6.029,13.3038,4.60114,2470.964,2023-12-02T12:45:41Z
2023-12-02T10:46:16Z,42.805,6.029,13.3039,4.60113,2470.973,2023-12-02T12:48:45Z
2023-12-02T10:49:19Z,42.805,6.029,13.3039,4.60114,2470.95,2023-12-02T12:51:48Z
2023-12-02T10:52:22Z,42.805,6.029,13.3036,4.60113,2470.927,2023-12-02T12:54:51Z
2023-12-02T10:55:25Z,42.805,6.029,13.3036,4.60113,2470.95,2023-12-02T12:57:54Z
2023-12-02T10:58:28Z,42.805,6.029,13.3039,4.60114,2470.913,2023-12-02T13:00:57Z
2023-12-02T11:01:31Z,42.805,6.029,13.3041,4.60114,2470.964,2023-12-02T13:04:00Z
2023-12-02T11:04:34Z,42.805,6.029,13.3040,4.60115,2470.95,2023-12-02T13:07:03Z
2023-12-02T11:07:37Z,42.805,6.029,13.3035,4.60115,2470.95,2023-12-02T13:10:06Z
2023-12-02T11:10:41Z,42.805,6.029,13.3040,4.60115,2470.927,2023-12-02T13:13:09Z
2023-12-02T11:13:44Z,42.805,6.029,13.3038,4.60115,2470.927,2023-12-02T13:16:12Z
2023-12-02T11:16:47Z,42.805,6.029,13.3042,4.60114,2470.964,2023-12-02T13:19:15Z
2023-12-02T11:19:50Z,42.805,6.029,13.3040,4.60115,2470.95,2023-12-02T13:22:18Z
2023-12-02T11:22:53Z,42.805,6.029,13.3040,4.60115,2470.973,2023-12-02T13:25:22Z
2023-12-02T11:25:56Z,42.805,6.029,13.3039,4.60117,2470.987,2023-12-02T13:28:25Z
2023-12-02T11:28:59Z,42.805,6.029,13.3037,4.60116,2470.94,2023-12-02T13:31:28Z
2023-12-02T11:32:02Z,42.805,6.029,13.3043,4.60115,2470.973,2023-12-02T13:34:31Z
2023-12-02T11:35:05Z,42.805,6.029,13.3039,4.60117,2470.973,2023-12-02T13:37:34Z
2023-12-02T11:38:08Z,42.805,6.029,13.3043,4.60114,2470.904,2023-12-02T13:40:37Z
2023-12-02T11:41:11Z,42.805,6.029,13.3041,4.60115,2470.964,2023-12-02T13:43:40Z
2023-12-02T11:44:14Z,42.805,6.029,13.3041,4.60115,2470.95,2023-12-02T13:46:43Z
2023-12-02T11:47:18Z,42.805,6.029,13.3041,4.60115,2470.95,2023-12-02T13:49:46Z
2023-12-02T11:50:21Z,42.805,6.029,13.3042,4.60115,2470.95,2023-12-02T13:52:49Z
2023-12-02T11:53:24Z,42.805,6.029,13.3043,4.60114,2470.904,2023-12-02T13:55:52Z
2023-12-02T11:56:27Z,42.805,6.029,13.3037,4.60115,2470.95,2023-12-02T13:58:55Z
2023-12-02T11:59:30Z,42.805,6.029,13.3039,4.60114,2470.904,2023-12-02T14:01:59Z
2023-12-02T12:02:33Z,42.805,6.029,13.3041,4.60115,2470.904,2023-12-02T14:05:02Z
2023-12-02T12:05:36Z,42.805,6.029,13.3036,4.60115,2470.95,2023-12-02T14:08:05Z
2023-12-02T12:08:39Z,42.805,6.029,13.3043,4.60115,2470.927,2023-12-02T14:11:08Z
2023-12-02T12:11:42Z,42.805,6.029,13.3042,4.60114,2470.904,2023-12-02T14:14:11Z
2023-12-02T12:14:45Z,42.805,6.029,13.3046,4.60115,2470.94,2023-12-02T14:17:14Z
2023-12-02T12:17:48Z,42.805,6.029,13.3041,4.60116,2470.927,2023-12-02T14:20:17Z
2023-12-02T12:20:51Z,42.805,6.029,13.3046,4.60116,2470.927,2023-12-02T14:23:20Z
2023-12-02T12:23:55Z,42.805,6.029,13.3037,4.60115,2470.927,2023-12-02T14:26:23Z
2023-12-02T12:26:58Z,42.805,6.029,13.3042,4.60115,2470.95,2023-12-02T14:29:26Z
2023-12-02T12:30:01Z,42.805,6.029,13.3039,4.60115,2470.927,2023-12-02T14:32:29Z
2023-12-02T12:33:04Z,42.805,6.029,13.3046,4.60117,2470.94,2023-12-02T14:35:32Z
2023-12-02T12:36:07Z,42.805,6.029,13.3039,4.60115,2470.917,2023-12-02T14:38:36Z
2023-12-02T12:39:10Z,42.805,6.029,13.3040,4.60115,2470.927,2023-12-02T14:41:39Z
2023-12-02T12:42:13Z,42.805,6.029,13.3039,4.60115,2470.927,2023-12-02T14:44:42Z
2023-12-02T12:45:16Z,42.805,6.029,13.3043,4.60119,2470.917,2023-12-02T14:47:45Z
2023-12-02T12:48:19Z,42.805,6.029,13.3041,4.60117,2470.904,2023-12-02T14:50:48Z
2023-12-02T12:51:22Z,42.805,6.029,13.3041,4.60115,2470.88,2023-12-02T14:53:51Z
2023-12-02T12:54:25Z,42.805,6.029,13.3041,4.60117,2470.904,2023-12-02T14:56:54Z
2023-12-02T12:57:28Z,42.805,6.029,13.3041,4.60116,2470.904,2023-12-02T14:59:57Z
2023-12-02T13:00:32Z,42.805,6.029,13.3041,4.60114,2470.88,2023-12-02T15:03:00Z
2023-12-02T13:03:35Z,42.805,6.029,13.3038,4.60115,2470.88,2023-12-02T15:06:03Z
2023-12-02T13:06:38Z,42.805,6.029,13.3041,4.60117,2470.88,2023-12-02T15:09:06Z
2023-12-02T13:09:41Z,42.805,6.029,13.3042,4.60115,2470.904,2023-12-02T15:12:09Z
2023-12-02T13:12:44Z,42.805,6.029,13.3039,4.60116,2470.88,2023-12-02T15:15:13Z
2023-12-02T13:15:47Z,42.805,6.029,13.3040,4.60116,2470.88,2023-12-02T15:18:16Z
2023-12-02T13:18:50Z,42.805,6.029,13.3039,4.60115,2470.917,2023-12-02T15:21:19Z
2023-12-02T13:21:53Z,42.805,6.029,13.3039,4.60114,2470.88,2023-12-02T15:24:22Z
2023-12-02T13:24:56Z,42.805,6.029,13.3038,4.60116,2470.904,2023-12-02T15:27:25Z
2023-12-02T13:27:59Z,42.805,6.029,13.3040,4.60114,2470.894,2023-12-02T15:30:28Z
2023-12-02T13:31:02Z,42.805,6.029,13.3039,4.60114,2470.88,2023-12-02T15:33:31Z
2023-12-02T13:34:05Z,42.805,6.029,13.3042,4.60117,2470.857,2023-12-02T15:36:34Z
2023-12-02T13:37:09Z,42.805,6.029,13.3039,4.60115,2470.857,2023-12-02T15:39:37Z
2023-12-02T13:40:12Z,42.805,6.029,13.3037,4.60115,2470.88,2023-12-02T15:42:40Z
2023-12-02T13:43:15Z,42.805,6.029,13.3039,4.60117,2470.904,2023-12-02T15:45:43Z
2023-12-02T13:46:18Z,42.805,6.029,13.3046,4.60114,2470.904,2023-12-02T15:48:47Z
2023-12-02T13:49:21Z,42.805,6.029,13.3040,4.60114,2470.88,2023-12-02T15:51:50Z
2023-12-02T13:52:24Z,42.805,6.029,13.3042,4.60114,2470.88,2023-12-02T15:54:53Z
2023-12-02T13:55:27Z,42.805,6.029,13.3040,4.60115,2470.871,2023-12-02T15:57:56Z
2023-12-02T13:58:30Z,42.805,6.029,13.3039,4.60114,2470.917,2023-12-02T16:00:59Z
2023-12-02T14:01:33Z,42.805,6.029,13.3037,4.60115,2470.871,2023-12-02T16:04:02Z
2023-12-02T14:04:36Z,42.805,6.029,13.3040,4.60114,2470.857,2023-12-02T16:07:05Z
2023-12-02T14:07:39Z,42.805,6.029,13.3041,4.60114,2470.871,2023-12-02T16:10:08Z
2023-12-02T14:10:42Z,42.805,6.029,13.3039,4.60115,2470.833,2023-12-02T16:13:11Z
2023-12-02T14:13:46Z,42.805,6.029,13.3041,4.60114,2470.88,2023-12-02T16:16:14Z
2023-12-02T14:16:49Z,42.805,6.029,13.3039,4.60113,2470.857,2023-12-02T16:19:17Z
2023-12-02T14:19:52Z,42.805,6.029,13.3043,4.60114,2470.833,2023-12-02T16:22:20Z
2023-12-02T14:22:55Z,42.805,6.029,13.3041,4.60115,2470.894,2023-12-02T16:25:23Z
2023-12-02T14:25:58Z,42.805,6.029,13.3041,4.60115,2470.857,2023-12-02T16:28:27Z
2023-12-02T14:29:01Z,42.805,6.029,13.3039,4.60114,2470.88,2023-12-02T16:31:30Z
2023-12-02T14:32:04Z,42.805,6.029,13.3041,4.60114,2470.847,2023-12-02T16:34:33Z
2023-12-02T14:35:07Z,42.805,6.029,13.3040,4.60114,2470.857,2023-12-02T16:37:36Z
2023-12-02T14:38:10Z,42.805,6.029,13.3041,4.60116,2470.871,2023-12-02T16:40:39Z
2023-12-02T14:41:13Z,42.805,6.029,13.3041,4.60114,2470.81,2023-12-02T16:43:42Z
2023-12-02T14:44:16Z,42.805,6.029,13.3039,4.60114,2470.824,2023-12-02T16:46:45Z
2023-12-02T14:47:19Z,42.805,6.029,13.3037,4.60117,2470.787,2023-12-02T16:49:48Z
2023-12-02T14:50:23Z,42.805,6.029,13.3037,4.60114,2470.81,2023-12-02T16:52:51Z
2023-12-02T14:53:26Z,42.805,6.029,13.3038,4.60113,2470.871,2023-12-02T16:55:54Z
2023-12-02T14:56:29Z,42.805,6.029,13.3045,4.60114,2470.833,2023-12-02T16:58:57Z
2023-12-02T14:59:32Z,42.805,6.029,13.3041,4.60114,2470.833,2023-12-02T17:02:01Z
2023-12-02T15:02:35Z,42.805,6.029,13.3039,4.60115,2470.833,2023-12-02T17:05:04Z